Simultaneous Nadir Overpasses (SNOs) Predictions

Prediction of SNOs between GOES-14 and NOAA-20 Satellite Orbit:

Table of predicted SNOs for the next 14.0 days since TLE Epoch: 9/30/2023
Index Date Time (GOES-14) GOES-14 Lat,Lon NOAA-20 Lat,Lon Distance(km) Time Diff (sec)
1 09/30/2023 20:24:15 -0.31,-108.53 0.58,-104.49 459.93 80
2 10/02/2023 08:43:22 0.28,-108.61 0.57,-109.76 131.92 80
3 10/03/2023 08:27:16 0.29,-108.61 -0.47,-105.23 385.31 80
4 10/04/2023 20:46:31 -0.27,-108.54 -0.72,-110.53 227.75 80
5 10/05/2023 20:30:25 -0.28,-108.54 0.32,-106.00 289.51 80
6 10/07/2023 08:49:31 0.24,-108.62 0.82,-111.27 302.30 80
7 10/08/2023 08:33:25 0.26,-108.62 -0.17,-106.73 214.92 80
8 10/09/2023 20:52:39 -0.22,-108.54 -1.01,-112.03 398.21 80
9 10/10/2023 20:36:33 -0.24,-108.54 -0.02,-107.49 119.34 80
10 10/12/2023 08:55:39 0.20,-108.63 1.15,-112.76 471.74 80
11 10/13/2023 08:39:33 0.22,-108.63 0.15,-108.22 45.92 80
